Station BUFN6 - 9063020 - Buffalo, NY Image indicating link to RSS feed of recent meteorological observations for station BUFN6


Conditions at BUFN6 as of
(6:30 am EDT)
1030 GMT on 07/21/2024:
     

Click on the graph icon in the table below to see a time series plot of the last five days of that observation.

5-day plot - Wind Direction Wind Direction (WDIR):SSW ( 200 deg true )
5-day plot - Wind Speed Wind Speed (WSPD): 8.0 kts
5-day plot - Wind Gust Wind Gust (GST): 8.9 kts
5-day plot - Atmospheric Pressure Atmospheric Pressure (PRES):30.05 in
5-day plot - Air Temperature Air Temperature (ATMP): 70.0 °F
5-day plot - Water Temperature Water Temperature (WTMP): 77.4 °F
5-day plot - Wind Speed at 10 Meters Wind Speed at 10 meters (WSPD10M): 7.8 kts
5-day plot - Wind Speed at 20 Meters Wind Speed at 20 meters (WSPD20M): 9.7 kts
5-day plot -  Wind Speed, Wind Gust and Atmospheric Pressure Combined plot of Wind Speed, Gust, and Air Pressure
NOS Water Level Observation Network Water Level
Previous observations
TIME
(EDT)
5-day plot - Wind Direction
WDIR
 
5-day plot - Wind Speed
WSPD
kts
5-day plot - Wind Gust
GST
kts
5-day plot - Wave Height
WVHT
ft
5-day plot - Dominant Wave Period
DPD
sec
5-day plot - Average Wave Period
APD
sec
5-day plot - Mean Wave Direction
MWD
 
5-day plot - Atmospheric Pressure
PRES
in
5-day plot - Pressure Tendency
PTDY
in
5-day plot - Air Temperature
ATMP
°F
5-day plot - Water Temperature
WTMP
°F
5-day plot - Dew Point
DEWP
°F
5-day plot - Salinity
SAL
psu
5-day plot - Visibility
VIS
nmi
5-day plot - Tide (above MLLW)
TIDE
ft
2024-07-21 06:24 amSSW 8.0 8.9----30.05- 70.2 77.4----
2024-07-21 06:18 amSSW 7.0 8.9----30.05- 70.3 77.4 66.0---
2024-07-21 06:12 am SW 5.1 8.0----30.05- 70.3 77.4 65.5---
2024-07-21 06:06 amSSW 7.0 8.0----30.04- 70.2 77.2 66.0---
2024-07-21 06:00 amSSW 7.0 8.9----30.04+0.01 69.8 77.2 66.0---
2024-07-21 05:54 am SW 5.1 8.0----30.04- 70.2 77.4 65.5---
2024-07-21 05:48 amSSW 7.0 8.9----30.04- 69.6 77.4 65.8---
2024-07-21 05:42 amSSW 7.0 8.9----30.04- 69.6 77.4 66.2---
2024-07-21 05:36 amSSW 6.0 8.9----30.04- 70.2 77.4 66.2---
2024-07-21 05:30 am-------30.04- 70.0 77.4 66.4---
2024-07-21 05:24 am-------30.04- 71.1 77.4 63.9---
2024-07-21 05:18 am SW 4.1 6.0----30.04- 71.2 77.4 60.1---
2024-07-21 05:12 am SW 6.0 7.0----30.04- 71.1 77.4 59.0---
2024-07-21 05:06 am SW 4.1 7.0----30.04- 71.1 77.4 59.9---
2024-07-21 05:00 am SW 5.1 6.0------ 71.1 77.4 59.9---
2024-07-21 04:54 amWSW 4.1 5.1------ 71.2 77.4 61.2---
2024-07-21 04:48 am SW 4.1 5.1----30.03- 71.1 77.4 59.4---
2024-07-21 04:42 amWSW 4.1 5.1----30.03- 71.1 77.4 59.5---
2024-07-21 04:36 amWSW 4.1 5.1----30.03- 71.1 77.4 60.3---
2024-07-21 04:30 amWSW 4.1 5.1----30.03- 70.9 77.4 59.9---
2024-07-21 04:24 amWSW 5.1 6.0----30.03- 71.1 77.4 58.8---
2024-07-21 04:18 amWSW 5.1 6.0----30.03- 71.2 77.4 60.3---
2024-07-21 04:12 amWSW 4.1 5.1----30.03- 71.1 77.4 59.7---
2024-07-21 04:06 amWSW 4.1 6.0----30.03- 71.1 77.4 60.1---
2024-07-21 04:00 amWSW 5.1 6.0----30.03+0.00 71.2 77.5 59.5---
2024-07-21 03:54 amWSW 4.1 5.1----30.03- 71.1 77.5 60.3---
2024-07-21 03:48 amWSW 5.1 6.0----30.03- 71.1 77.5 60.4---
2024-07-21 03:42 amWSW 4.1 6.0----30.03- 71.1 77.5 61.0---
2024-07-21 03:36 amWSW 4.1 6.0----30.03- 71.1 77.5 61.5---
2024-07-21 03:30 amWSW 2.9 5.1----30.03- 71.1 77.5 61.5---
2024-07-21 03:24 amWSW 6.0 7.0----30.03- 70.9 77.5 59.5---
2024-07-21 03:18 amWSW 5.1 5.1----30.03- 70.9 77.5 60.3---
2024-07-21 03:12 amWSW 4.1 6.0----30.03- 70.7 77.5 61.3---
2024-07-21 03:06 amWSW 5.1 6.0----30.03- 70.7 77.5 61.7---
2024-07-21 03:00 amWSW 4.1 5.1----30.03+0.00 70.7 77.5 62.6---
2024-07-21 02:54 amWSW 5.1 6.0----30.03- 70.7 77.5 61.7---
2024-07-21 02:48 amWSW 5.1 6.0----30.03- 70.7 77.5 62.6---
2024-07-21 02:42 am W 5.1 7.0----30.03- 70.9 77.5 63.0---
2024-07-21 02:36 amWSW 5.1 6.0----30.04- 71.1 77.5 63.3---
2024-07-21 02:30 am W 5.1 7.0----30.04- 71.1 77.5 63.5---
2024-07-21 02:24 am W 5.1 7.0----30.04- 71.4 77.5 63.3---
2024-07-21 02:18 am W 5.1 8.0----30.04-- 77.5----
2024-07-21 02:12 am W 6.0 8.9----30.04-- 77.5----
2024-07-21 02:06 amWSW 7.0 8.9----30.04-- 77.5----
2024-07-21 02:00 amWSW 7.0 8.9----30.03-0.01- 77.5----
2024-07-21 01:54 am W 8.0 9.9----30.04-- 77.5----
2024-07-21 01:48 am W 8.9 11.1----30.04- 72.1 77.5 64.6---
2024-07-21 01:42 am W 8.0 11.1----30.03- 72.5 77.5 65.7---
2024-07-21 01:36 amWSW 8.0 12.0----30.03- 72.5 77.5 66.2---
2024-07-21 01:30 amWSW 9.9 12.0----30.03-- 77.7----
2024-07-21 01:24 amWSW 11.1 12.0----30.03-- 77.7----
2024-07-21 01:18 amWSW 11.1 12.0----30.03- 72.7 77.7 66.0---
2024-07-21 01:12 amWSW 12.0 13.0----30.03- 72.9 77.7 66.4---
2024-07-21 01:06 amWSW 12.0 13.0----30.03- 72.9 77.7 66.7---
2024-07-21 01:00 amWSW 11.1 13.0----30.03-0.01 72.9 77.7 66.0---
2024-07-21 12:54 amWSW 12.0 13.0----30.03- 73.0 77.7 66.2---
2024-07-21 12:48 amWSW 11.1 12.0----30.04- 73.0 77.7 66.6---
2024-07-21 12:42 amWSW 11.1 12.0----30.04- 73.0 77.7 66.7---
2024-07-21 12:36 amWSW 11.1 13.0----30.03- 73.0 77.7 66.6---
2024-07-21 12:30 am-------30.03- 73.0 77.7 66.6---
2024-07-21 12:24 am-------30.03- 73.0 77.7 66.4---
2024-07-21 12:18 am-------30.03- 73.0 77.7 66.2---
2024-07-21 12:12 am-------30.03- 73.2 77.7 65.7---
2024-07-21 12:06 am-------30.03- 73.2 77.7 66.0---
2024-07-21 12:00 amWSW 11.1 14.0----30.04+0.00 73.4 77.7 66.4---
2024-07-20 11:54 pmWSW 12.0 13.0----30.04- 73.2 77.7 65.1---
2024-07-20 11:48 pmWSW 11.1 13.0----30.04- 73.2 77.7 66.0---
2024-07-20 11:42 pmWSW 11.1 14.0----30.04- 73.2 77.7 65.5---
2024-07-20 11:36 pmWSW 11.1 13.0----30.04- 73.4 77.7 65.3---
2024-07-20 11:30 pm--------- 73.4 77.7----
2024-07-20 11:24 pm--------- 73.4 77.9----
2024-07-20 11:18 pm SW 7.0 13.0----30.04-- 77.9----
2024-07-20 11:12 pm SW 9.9 12.0----30.04-- 77.9----
2024-07-20 11:06 pmWSW 12.0 14.0----30.05-- 77.9----
2024-07-20 11:00 pm SW 8.0 14.0----30.05+0.01 73.6 77.9 65.1---
2024-07-20 10:54 pm SW 9.9 13.0----30.05- 73.6 77.9 65.1---
2024-07-20 10:48 pm SW 11.1 14.0----30.05- 73.6 77.9 65.5---
2024-07-20 10:42 pm SW 11.1 14.0----30.05- 73.6 77.9 65.1---
2024-07-20 10:36 pmWSW 11.1 14.0----30.05- 73.6 77.9 64.4---
2024-07-20 10:30 pmWSW 12.0 14.0----30.05- 73.6 77.9 63.9---
2024-07-20 10:24 pm SW 11.1 13.0----30.05- 73.6 77.9 64.8---
2024-07-20 10:18 pmWSW 12.0 14.0----30.05- 73.6 77.9 63.9---
2024-07-20 10:12 pmWSW 13.0 14.0----30.05- 73.6 77.9 63.5---
2024-07-20 10:06 pmWSW 11.1 14.0----30.04- 73.8 77.9 64.6---
2024-07-20 10:00 pm SW 12.0 13.0----30.04+0.01 73.6- 63.5---
2024-07-20 09:54 pm SW 11.1 14.0----30.04- 73.8- 64.2---
2024-07-20 09:48 pm SW 11.1 13.0----30.04- 73.8 77.9 63.1---
2024-07-20 09:42 pm SW 8.9 13.0----30.04- 73.8 77.9 64.2---
2024-07-20 09:36 pm SW 11.1 13.0----30.04- 73.8 77.9 63.5---
2024-07-20 09:30 pmWSW 11.1 13.0----30.04-- 78.1----
2024-07-20 09:24 pmWSW 12.0 13.0----30.04-- 78.1----
2024-07-20 09:18 pmWSW 12.0 14.0----30.04- 73.4 78.1 63.5---
2024-07-20 09:12 pmWSW 12.0 13.0----30.04- 73.4 78.1 63.1---
2024-07-20 09:06 pmWSW 11.1 12.0----30.03- 73.6 78.1 63.5---
2024-07-20 09:00 pmWSW 12.0 13.0----30.03+0.00 73.4 78.1 62.4---
2024-07-20 08:54 pmWSW 12.0 13.0----30.03- 73.4 78.1 62.8---
2024-07-20 08:48 pmWSW 12.0 12.0----30.03- 73.4 78.1 61.9---
2024-07-20 08:42 pmWSW 11.1 12.0----30.03- 73.4 78.1 61.9---
2024-07-20 08:36 pm SW 8.9 12.0----30.03- 73.6 78.1 62.8---
2024-07-20 08:30 pm SW 8.9 12.0----30.03- 73.6 78.1 62.8---
2024-07-20 08:24 pm SW 11.1 13.0----30.03- 73.4 78.1 61.9---
2024-07-20 08:18 pmWSW 11.1 13.0----30.03- 73.4 78.1 62.4---
2024-07-20 08:12 pmWSW 12.0 13.0----30.03- 73.4 78.3 61.3---
2024-07-20 08:06 pmWSW 11.1 12.0----30.03- 73.2 78.3 61.5---
2024-07-20 08:00 pm SW 8.0 12.0----30.03-0.01 73.4 78.3 64.0---
2024-07-20 07:54 pmWSW 11.1 12.0----30.03- 73.2 78.3 62.1---
2024-07-20 07:48 pmWSW 11.1 12.0----30.03- 73.4 78.3 61.3---
2024-07-20 07:42 pmWSW 11.1 12.0----30.03- 73.4 78.1 61.2---
2024-07-20 07:36 pmWSW 11.1 12.0----30.03- 73.4 78.3 61.5---
2024-07-20 07:30 pm SW 8.9 12.0----30.03- 73.6 78.3 62.4---
2024-07-20 07:24 pm SW 8.9 11.1----30.03- 73.6 78.3 61.5---
2024-07-20 07:18 pm SW 8.9 12.0----30.03- 73.6 78.3 61.7---
2024-07-20 07:12 pmWSW 9.9 12.0----30.03- 73.6 78.3 61.5---
2024-07-20 07:06 pm SW 8.9 11.1----30.03- 73.6 78.3 62.2---
2024-07-20 07:00 pm SW 8.0 11.1----30.03- 73.8 78.3 62.8---
2024-07-20 06:54 pm SW 8.0 12.0----30.04- 73.8 78.3 63.0---
2024-07-20 06:48 pmWSW 9.9 12.0----30.03- 74.1 78.1 61.2---
2024-07-20 06:42 pmWSW 9.9 12.0----30.03- 74.1 78.1 60.6---
2024-07-20 06:36 pm SW 8.9 12.0----30.03- 74.1 78.1 61.3---
2024-07-20 06:30 pm SW 8.0 12.0----30.03-- 78.1----
2024-07-20 06:24 pm SW 8.9 12.0----30.03-- 78.3----
2024-07-20 06:18 pm SW 8.9 11.1----30.03- 74.5 78.1 60.6---
2024-07-20 06:12 pm SW 9.9 12.0----30.03- 74.3 78.3 60.3---
2024-07-20 06:06 pm SW 8.9 11.1----30.03- 74.5 78.3 60.3---
2024-07-20 06:00 pm SW 8.0 9.9----30.03-0.03 74.5 78.3 61.0---
2024-07-20 05:54 pmWSW 8.0 9.9----30.03- 74.7 78.1 59.9---
2024-07-20 05:48 pmWSW 8.0 11.1----30.03- 74.7 78.1 59.9---
2024-07-20 05:42 pmWSW 8.9 11.1----30.03- 74.7 78.1 59.5---
2024-07-20 05:36 pm SW 9.9 11.1----30.03- 74.3 78.1 59.0---
2024-07-20 05:30 pmWSW 8.9 11.1----30.04-- 78.1----
2024-07-20 05:24 pm SW 9.9 11.1----30.04-- 78.3----
2024-07-20 05:18 pm SW 8.0 9.9----30.04- 74.3 78.3 60.4---
2024-07-20 05:12 pm SW 8.0 11.1----30.05- 74.5 78.1 58.1---
2024-07-20 05:06 pm SW 7.0 9.9----30.05- 74.5 78.1 59.7---
2024-07-20 05:00 pm SW 8.9 9.9----30.05-0.02- 78.1----
2024-07-20 04:54 pm SW 8.9 11.1----30.05-- 78.1----
2024-07-20 04:48 pm SW 8.0 9.9----30.05-- 78.1----
2024-07-20 04:42 pm SW 7.0 9.9----30.05-- 78.1----
2024-07-20 04:36 pm SW 6.0 9.9----30.05-- 78.1----
2024-07-20 04:30 pm SW 7.0 9.9----30.05- 74.5 78.1 58.6---
2024-07-20 04:24 pm SW 6.0 9.9----30.05- 74.5 78.1 58.3---
2024-07-20 04:18 pm SW 5.1 8.9----30.05- 74.5 78.1 59.9---
2024-07-20 04:12 pm SW 7.0 11.1----30.05- 74.1 78.1 59.0---
2024-07-20 04:06 pm SW 6.0 11.1----30.05- 74.1 78.1 58.5---
2024-07-20 04:00 pm SW 7.0 9.9------ 74.1 78.1 59.0---
2024-07-20 03:54 pm SW 7.0 9.9------ 74.1 78.1 58.8---
2024-07-20 03:48 pm SW 7.0 12.0----30.05-- 77.9----
2024-07-20 03:42 pm SW 6.0 9.9----30.05-- 77.9----
2024-07-20 03:36 pm SW 6.0 11.1----30.06-- 77.9----
2024-07-20 03:30 pm SW 7.0 9.9----30.06- 74.3 77.9 58.5---
2024-07-20 03:24 pm SW 7.0 11.1----30.06- 74.3 77.9 59.7---
2024-07-20 03:18 pm SW 8.0 11.1----30.06- 74.1- 60.1---
2024-07-20 03:12 pm SW 8.9 11.1----30.06- 73.9- 59.9---
2024-07-20 03:06 pm SW 8.9 12.0----30.06- 73.8- 59.5---
2024-07-20 03:00 pm SW 9.9 12.0----30.06-0.02 73.8 78.1 58.8---
2024-07-20 02:54 pm SW 7.0 12.0----30.06- 73.8 78.1 59.4---
2024-07-20 02:48 pm SW 9.9 11.1----30.06-------
2024-07-20 02:42 pm SW 6.0 11.1----30.06-------
2024-07-20 02:36 pm SW 8.0 12.0----30.06-------
2024-07-20 02:30 pmWSW 11.1 12.0----30.06- 73.4 77.9 57.7---
2024-07-20 02:24 pm SW 8.0 11.1----30.06- 73.6 77.9 58.1---
2024-07-20 02:18 pm SW 8.9 11.1----30.06- 73.4 77.9 58.6---
2024-07-20 02:12 pm SW 8.0 11.1----30.07- 73.6 77.9 59.5---
2024-07-20 02:06 pmWSW 8.0 11.1----30.07- 73.2 77.9 56.8---
2024-07-20 02:00 pm SW 8.9 11.1----30.07-0.01 73.0 77.9 57.7---
2024-07-20 01:54 pmWSW 9.9 12.0----30.07- 73.0 77.9 57.6---
2024-07-20 01:48 pm SW 8.0 11.1----30.07- 73.0 77.7 58.3---
2024-07-20 01:42 pm SW 8.0 11.1----30.07- 73.0 77.7 58.8---
2024-07-20 01:36 pm SW 8.0 12.0----30.07- 73.0 77.7 59.5---
2024-07-20 01:30 pm SW 7.0 11.1----30.07- 73.0 77.7 59.7---
2024-07-20 01:24 pm SW 7.0 11.1----30.07- 72.9 77.7 59.5---
2024-07-20 01:18 pm SW 7.0 12.0----30.07- 72.7 77.5 59.5---
2024-07-20 01:12 pm SW 8.0 11.1----30.08- 72.9 77.5 60.1---
2024-07-20 01:06 pm SW 6.0 9.9----30.08- 72.9 77.5 59.4---
2024-07-20 01:00 pmSSW 7.0 11.1----30.08-0.01 72.7 77.5 59.7---
2024-07-20 12:54 pm SW 6.0 9.9----30.08- 72.3 77.5 59.4---
2024-07-20 12:48 pmSSW 8.0 9.9----30.08-- 77.5----
2024-07-20 12:42 pmSSW 7.0 9.9----30.08-- 77.5----
2024-07-20 12:36 pmSSW 7.0 9.9----30.08-- 77.5----
2024-07-20 12:30 pmSSW 7.0 11.1----30.08- 71.8 77.5 61.2---
2024-07-20 12:24 pm SW 7.0 11.1----30.08- 72.0 77.5 61.9---
2024-07-20 12:18 pmSSW 7.0 9.9----30.08- 71.4 77.5 59.9---
2024-07-20 12:12 pmSSW 8.9 11.1----30.08- 71.2 77.5 59.9---
2024-07-20 12:06 pmSSW 8.9 11.1----30.08- 71.2 77.5 60.3---
2024-07-20 12:00 pmSSW 8.0 9.9----30.08-0.02- 77.5----
2024-07-20 11:54 amSSW 8.0 9.9----30.08-- 77.5----
2024-07-20 11:48 amSSW 7.0 8.9----30.08-- 77.5----
2024-07-20 11:42 amSSW 6.0 8.9----30.08-- 77.5----
2024-07-20 11:36 amSSW 5.1 8.0----30.08-- 77.5----
2024-07-20 11:30 amSSW 6.0 7.0----30.08- 71.1 77.5 60.1---
2024-07-20 11:24 amSSW 6.0 8.9----30.08- 70.5 77.5 60.3---
2024-07-20 11:18 amSSW 7.0 8.9----30.08- 70.3 77.5 60.4---
2024-07-20 11:12 amSSW 6.0 8.0----30.08- 70.3 77.5 61.0---
2024-07-20 11:06 amSSW 6.0 8.0----30.09- 70.0 77.5 60.8---
2024-07-20 11:00 amSSW 6.0 8.0----30.09-0.01 70.0 77.5 61.2---
2024-07-20 10:54 amSSW 5.1 7.0----30.09- 70.2 77.5 60.6---
2024-07-20 10:48 amSSW 6.0 8.0----30.09-- 77.5----
2024-07-20 10:42 amSSW 6.0 7.0----30.09-- 77.5----
2024-07-20 10:36 amSSW 6.0 7.0----30.09-- 77.5----
2024-07-20 10:30 amSSW 5.1 7.0----30.09- 70.0 77.5 60.1---
2024-07-20 10:24 amSSW 5.1 7.0----30.09- 70.0 77.5 60.1---
2024-07-20 10:18 amSSW 5.1 6.0----30.09- 70.3 77.5 59.9---
2024-07-20 10:12 amSSW 5.1 5.1----30.09- 70.2 77.5 59.5---
2024-07-20 10:06 amSSW 2.9 5.1----30.09- 70.3 77.4 59.5---
2024-07-20 10:00 am SW 2.9 5.1----30.09+0.00- 77.4----
2024-07-20 09:54 amSSW 4.1 5.1----30.09-- 77.4----
2024-07-20 09:48 amSSW 2.9 5.1----30.09- 69.6 77.4 59.7---
2024-07-20 09:42 am SW 2.9 5.1----30.09- 70.2 77.4 59.5---
2024-07-20 09:36 am SW 1.9 2.9----30.09- 69.8 77.4 60.8---
2024-07-20 09:30 amWSW 1.0 4.1----30.09- 70.2 77.4 60.6---
2024-07-20 09:24 am SW 1.9 2.9----30.09- 69.6 77.4 60.6---
2024-07-20 09:18 am S 1.9 1.9----30.09- 68.7 77.4 59.4---
2024-07-20 09:12 am S 1.0 2.9----30.10- 69.1 77.4 59.2---
2024-07-20 09:06 am S 1.9 2.9----30.10- 68.7 77.2 58.6---
2024-07-20 09:00 am S 1.0 2.9----30.10+0.01 70.3 77.2 58.8---
2024-07-20 08:54 am- 0.0 1.9----30.10- 69.4 77.2 58.6---
2024-07-20 08:48 am S 1.9 2.9----30.10- 67.5 77.2 58.3---
2024-07-20 08:42 am S 1.0 2.9----30.10- 67.5 77.2 58.8---
2024-07-20 08:36 am S 2.9 4.1----30.10- 66.7 77.2 58.6---
2024-07-20 08:30 am S 2.9 4.1----30.10- 66.4 77.2 57.9---
2024-07-20 08:24 am S 2.9 4.1----30.10- 66.7 77.2 57.9---
2024-07-20 08:18 am SE 1.9 2.9----30.10-- 77.2----
2024-07-20 08:12 am- 0.0 1.0----30.10-- 77.2----
2024-07-20 08:06 am SE 1.0 4.1----30.10-- 77.2----
2024-07-20 08:00 am SE 2.9 4.1----30.10+0.02 66.2 77.2 55.9---
2024-07-20 07:54 am- 0.0 1.9----30.10- 66.9 77.2 56.3---
2024-07-20 07:48 amESE 1.9 2.9----30.10-------
2024-07-20 07:42 amESE 1.0 2.9----30.10-------
2024-07-20 07:36 amESE 1.9 2.9----30.10-------
2024-07-20 07:30 amENE 1.0 2.9----30.09- 65.8 77.2 55.6---
2024-07-20 07:24 amENE 1.9 2.9----30.09- 65.3 77.2 55.2---
2024-07-20 07:18 amENE 1.9 1.9----30.09- 65.1 77.2 55.4---
2024-07-20 07:12 am- 0.0 2.9----30.09- 64.8 77.2 55.8---
2024-07-20 07:06 am SE 1.9 4.1----30.09- 64.4 77.2 55.6---
2024-07-20 07:00 am-------30.09+0.01 63.9 77.2 55.2---
2024-07-20 06:54 am-------30.09- 63.5 77.2 55.2---